�N����,����,�~����,�C��,���x,�C��,����,���ϕ���,�ő�u�ԕ���,�ő厞����,���˗�,�I�_���x,�n�����x,�ő啗���N��,DTYPE
"19/10/13","00:10",0.0,18.7,91.9,997.7,272.4,1.2,2.0,259.4,0.00,17.4,20.5,"00:04:00",1
"19/10/13","00:20",0.0,18.6,92.1,997.7,308.7,1.5,4.5,344.4,0.00,17.3,20.7,"00:18:16",1
"19/10/13","00:30",0.0,18.6,92.3,998.2,307.6,1.3,2.9,342.5,0.00,17.4,20.4,"00:27:20",1
"19/10/13","00:40",0.0,18.6,92.5,998.2,311.4,1.7,3.5,316.1,0.00,17.4,20.4,"00:35:28",1
"19/10/13","00:50",0.0,18.6,92.6,998.6,314.3,1.3,4.0,334.6,0.00,17.4,20.4,"00:41:12",1
"19/10/13","01:00",0.0,18.6,92.7,999.3,277.1,1.2,2.6,291.4,0.00,17.4,20.4,"00:58:16",1
"19/10/13","01:10",0.0,18.5,92.8,999.3,302.9,1.6,3.6,335.3,0.00,17.4,20.4,"01:01:44",1
"19/10/13","01:20",0.0,18.5,92.8,999.1,301.3,1.3,3.2,316.6,0.00,17.4,20.4,"01:16:32",1
"19/10/13","01:30",0.0,18.5,92.8,999.8,284.8,1.2,2.7,325.6,0.00,17.4,20.4,"01:20:24",1
"19/10/13","01:40",0.0,18.5,92.9,1000.3,293.1,1.2,2.5,329.2,0.00,17.4,20.4,"01:32:08",1
"19/10/13","01:50",0.0,18.5,93.1,1000.3,284.9,1.3,2.5,298.9,0.00,17.4,20.1,"01:47:36",1
"19/10/13","02:00",0.0,18.4,93.0,1000.5,275.0,1.2,2.0,303.3,0.00,17.3,20.2,"01:56:24",1
"19/10/13","02:10",0.0,18.5,93.1,1001.0,309.3,1.6,2.8,329.2,0.00,17.4,20.2,"02:05:20",1
"19/10/13","02:20",0.0,18.5,93.2,1001.0,314.4,1.8,3.9,329.3,0.00,17.4,20.5,"02:12:16",1
"19/10/13","02:30",0.0,18.4,93.2,1001.2,312.6,2.0,4.1,345.4,0.00,17.3,20.2,"02:24:16",1
"19/10/13","02:40",0.0,18.3,93.1,1001.5,313.1,2.0,4.0,295.6,0.00,17.2,20.4,"02:36:24",1
"19/10/13","02:50",0.0,18.3,92.9,1002.2,305.9,1.7,4.4,345.9,0.00,17.2,20.5,"02:40:08",1
"19/10/13","03:00",0.0,18.3,92.8,1001.9,299.5,1.8,3.9,315.2,0.00,17.2,20.3,"02:56:24",1
"19/10/13","03:10",0.0,18.2,92.8,1002.6,302.1,1.5,2.9,314.8,0.00,17.1,20.2,"03:08:56",1
"19/10/13","03:20",0.0,18.2,92.7,1002.9,317.3,2.1,5.4,341.5,0.00,17.0,20.2,"03:13:52",1
"19/10/13","03:30",0.0,18.2,92.7,1003.6,322.4,2.2,4.2,340.1,0.00,17.0,20.2,"03:21:28",1
"19/10/13","03:40",0.0,18.1,92.7,1003.6,324.3,2.3,3.9,329.0,0.00,16.9,20.3,"03:30:48",1
"19/10/13","03:50",0.0,17.9,92.7,1003.4,303.8,2.0,4.0,324.3,0.00,16.7,20.2,"03:45:12",1
"19/10/13","04:00",0.0,17.9,92.5,1004.1,296.6,2.1,4.4,332.3,0.00,16.7,20.2,"03:58:24",1
"19/10/13","04:10",0.0,17.8,92.5,1004.3,320.7,2.3,4.5,336.6,0.00,16.6,20.2,"04:03:28",1
"19/10/13","04:20",0.0,17.6,92.5,1004.5,320.8,2.7,5.0,343.6,0.00,16.4,20.2,"04:17:36",1
"19/10/13","04:30",0.0,17.5,92.6,1004.1,327.4,3.1,5.7,346.5,0.00,16.3,20.2,"04:24:32",1
"19/10/13","04:40",0.0,17.4,92.7,1004.5,329.6,3.1,5.7,324.8,0.00,16.2,20.1,"04:32:32",1
"19/10/13","04:50",0.0,17.3,92.8,1004.8,322.3,2.6,5.0,334.6,0.00,16.2,20.0,"04:45:44",1
"19/10/13","05:00",0.0,17.2,92.9,1005.2,325.3,2.5,4.2,325.7,0.00,16.1,19.9,"04:54:48",1
"19/10/13","05:10",0.0,17.1,93.1,1005.0,323.6,2.5,4.8,343.7,0.00,16.0,20.1,"05:02:48",1
"19/10/13","05:20",0.0,17.1,93.2,1005.7,319.7,2.6,4.8,336.8,0.00,16.0,20.0,"05:11:36",1
"19/10/13","05:30",0.0,16.9,93.3,1005.7,325.3,3.1,6.3,329.4,0.00,15.9,20.0,"05:28:24",1
"19/10/13","05:40",0.0,16.9,93.5,1006.2,329.8,3.5,7.7,327.9,0.00,15.9,20.1,"05:37:36",1
"19/10/13","05:50",0.0,16.8,93.5,1006.0,324.6,3.4,6.0,338.8,0.00,15.8,20.1,"05:48:00",1
"19/10/13","06:00",0.0,16.8,93.7,1006.4,323.0,3.1,5.2,328.9,0.00,15.8,20.0,"05:54:56",1
"19/10/13","06:10",0.0,16.8,93.7,1006.4,322.3,3.1,5.6,332.1,0.00,15.8,19.9,"06:08:16",1
"19/10/13","06:20",0.0,16.7,93.8,1007.1,326.4,3.7,6.3,332.3,0.00,15.7,19.8,"06:10:40",1
"19/10/13","06:30",0.0,16.8,93.8,1006.9,318.8,3.0,6.5,335.5,0.00,15.8,19.9,"06:26:24",1
"19/10/13","06:40",0.0,16.9,93.8,1007.1,321.2,2.7,5.1,331.2,0.00,15.9,19.9,"06:32:16",1
"19/10/13","06:50",0.0,17.0,93.9,1007.4,312.5,2.5,4.4,321.7,0.00,16.1,19.8,"06:42:08",1
"19/10/13","07:00",0.0,17.1,93.7,1007.6,316.7,2.6,4.8,325.5,0.00,16.1,19.9,"06:50:02",1
"19/10/13","07:10",0.0,17.2,93.5,1007.6,313.7,2.3,4.3,315.8,0.00,16.2,19.9,"07:00:02",1
"19/10/13","07:20",0.0,17.3,93.4,1007.8,324.3,3.2,5.5,330.6,0.01,16.3,19.8,"07:10:02",1
"19/10/13","07:30",0.0,17.5,93.0,1008.3,317.2,3.2,6.0,331.4,0.02,16.4,19.6,"07:20:08",1
"19/10/13","07:40",0.0,17.7,93.0,1008.8,314.9,2.8,5.8,339.6,0.05,16.6,19.8,"07:37:44",1
"19/10/13","07:50",0.0,17.9,92.1,1008.8,317.0,3.1,5.2,323.7,0.07,16.6,19.9,"07:46:40",1
"19/10/13","08:00",0.0,18.2,91.4,1008.6,313.1,3.4,7.3,339.0,0.06,16.8,19.9,"07:51:04",1
"19/10/13","08:10",0.0,18.4,91.1,1009.5,317.1,2.8,4.5,320.0,0.06,17.0,19.7,"08:03:44",1
"19/10/13","08:20",0.0,18.4,90.4,1009.5,301.6,2.0,3.9,335.6,0.06,16.8,20.0,"08:15:44",1
"19/10/13","08:30",0.0,18.4,90.1,1010.0,306.0,2.5,4.3,322.6,0.07,16.8,19.8,"08:20:02",1
"19/10/13","08:40",0.0,18.7,88.4,1010.0,322.1,2.8,4.8,338.5,0.08,16.8,19.8,"08:31:20",1
"19/10/13","08:50",0.2,18.9,86.7,1010.0,321.2,2.8,5.4,337.4,0.09,16.7,20.0,"08:43:44",1
"19/10/13","09:00",0.0,18.9,85.7,1010.2,325.1,2.8,4.4,341.2,0.13,16.5,20.0,"08:50:02",1
"19/10/13","09:10",0.0,19.0,85.8,1010.4,322.0,2.8,5.7,326.3,0.15,16.6,20.2,"09:07:36",1
"19/10/13","09:20",0.0,19.3,84.8,1010.7,317.8,2.6,5.7,334.4,0.10,16.7,20.1,"09:12:00",1
"19/10/13","09:30",0.0,18.9,84.6,1010.7,322.7,3.5,5.8,311.8,0.15,16.3,20.4,"09:21:20",1
"19/10/13","09:40",0.0,18.8,83.9,1011.2,317.0,3.2,7.0,329.1,0.13,16.1,20.2,"09:37:28",1
"19/10/13","09:50",0.0,18.9,84.0,1011.2,330.0,3.5,9.0,340.8,0.13,16.2,20.2,"09:42:56",1
"19/10/13","10:00",0.0,18.9,83.0,1011.4,319.2,2.6,5.6,339.0,0.11,16.0,20.5,"09:55:44",1
"19/10/13","10:10",0.0,18.6,83.0,1011.6,327.0,2.0,3.6,335.8,0.12,15.7,20.5,"10:05:28",1
"19/10/13","10:20",0.0,18.4,83.1,1011.4,326.9,2.0,7.0,308.4,0.14,15.5,20.6,"10:19:04",1
"19/10/13","10:30",0.0,18.6,83.7,1011.6,325.2,2.7,4.7,332.6,0.11,15.8,20.5,"10:28:48",1
"19/10/13","10:40",0.0,18.5,84.4,1011.4,324.5,2.6,5.6,343.9,0.12,15.9,20.7,"10:32:40",1
"19/10/13","10:50",0.0,18.5,83.8,1011.4,332.6,2.5,4.9,333.5,0.15,15.8,20.5,"10:40:08",1
"19/10/13","11:00",0.0,18.5,83.9,1011.6,331.4,2.8,6.5,333.9,0.15,15.8,20.7,"10:52:56",1
"19/10/13","11:10",0.0,18.7,82.8,1011.9,313.2,1.3,2.8,289.8,0.10,15.8,20.6,"11:01:28",1
"19/10/13","11:20",0.0,18.8,82.5,1012.1,311.1,1.0,2.7,334.7,0.10,15.8,20.8,"11:19:36",1
"19/10/13","11:30",0.0,18.6,81.9,1012.1,325.8,1.7,3.2,338.1,0.12,15.5,20.6,"11:22:24",1
"19/10/13","11:40",0.0,19.0,80.5,1012.3,336.6,1.7,4.4,348.1,0.10,15.6,20.9,"11:37:12",1
"19/10/13","11:50",0.0,18.8,81.5,1012.3,322.2,1.5,3.1,328.6,0.11,15.6,21.0,"11:40:16",1
"19/10/13","12:00",0.0,18.6,82.6,1012.1,326.1,2.2,4.9,341.0,0.14,15.6,20.9,"11:59:04",1
"19/10/13","12:10",0.0,18.7,81.5,1012.3,318.8,2.0,4.5,318.8,0.15,15.5,20.8,"12:06:08",1
"19/10/13","12:20",0.0,18.6,81.0,1012.3,329.5,2.5,5.1,337.5,0.15,15.3,21.0,"12:14:56",1
"19/10/13","12:30",0.0,18.9,80.4,1011.9,327.0,2.3,5.5,348.3,0.20,15.5,20.9,"12:24:00",1
"19/10/13","12:40",0.0,19.0,79.5,1012.3,331.5,2.8,6.3,350.7,0.24,15.4,20.9,"12:39:36",1
"19/10/13","12:50",0.0,19.1,77.7,1011.9,338.1,3.1,5.5,333.2,0.35,15.2,20.9,"12:46:16",1
"19/10/13","13:00",0.0,19.4,76.9,1011.4,335.6,2.3,5.8,327.9,0.31,15.3,21.2,"12:58:32",1
"19/10/13","13:10",0.0,19.3,76.0,1011.6,329.1,2.8,5.6,352.0,0.36,15.0,21.2,"13:00:32",1
"19/10/13","13:20",0.0,19.0,75.4,1011.4,331.5,2.2,5.4,36.2,0.19,14.6,21.3,"13:10:32",1
"19/10/13","13:30",0.0,18.8,76.1,1011.6,337.0,2.6,7.5,327.8,0.19,14.5,21.3,"13:25:28",1
"19/10/13","13:40",0.0,19.0,76.0,1011.4,343.1,2.2,5.2,323.1,0.19,14.7,21.4,"13:35:20",1
"19/10/13","13:50",0.0,18.9,76.2,1011.2,336.6,2.3,5.9,345.4,0.23,14.7,21.3,"13:40:48",1
"19/10/13","14:00",0.0,19.0,75.5,1011.6,323.8,2.0,4.7,309.9,0.22,14.6,21.2,"13:59:04",1
"19/10/13","14:10",0.0,19.3,75.9,1011.4,331.9,2.1,4.4,331.2,0.27,15.0,21.5,"14:00:56",1
"19/10/13","14:20",0.0,19.3,75.0,1011.4,334.2,1.7,4.4,321.0,0.21,14.8,21.5,"14:19:36",1
"19/10/13","14:30",0.0,19.4,74.9,1011.2,342.7,2.5,6.3,45.7,0.31,14.9,21.5,"14:24:32",1
"19/10/13","14:40",0.0,18.7,74.4,1011.4,351.5,2.3,5.2,340.4,0.25,14.1,21.4,"14:39:20",1
"19/10/13","14:50",0.0,19.0,75.5,1010.7,336.6,2.7,7.2,338.9,0.25,14.6,21.5,"14:43:20",1
"19/10/13","15:00",0.0,18.9,74.0,1011.2,335.3,2.7,5.9,332.7,0.24,14.2,21.8,"14:50:56",1
"19/10/13","15:10",0.0,18.8,74.3,1011.2,349.4,2.5,5.8,339.6,0.14,14.2,21.5,"15:06:08",1
"19/10/13","15:20",0.0,18.9,74.5,1011.2,336.8,2.2,6.7,326.5,0.15,14.3,21.7,"15:12:32",1
"19/10/13","15:30",0.0,19.0,74.1,1011.4,346.4,2.0,4.0,337.5,0.12,14.3,21.6,"15:24:08",1
"19/10/13","15:40",0.0,18.7,73.9,1011.6,338.3,1.8,7.2,341.6,0.11,14.0,21.5,"15:39:36",1
"19/10/13","15:50",0.0,18.7,74.2,1011.4,349.7,1.8,4.0,340.2,0.10,14.1,21.3,"15:41:12",1
"19/10/13","16:00",0.0,18.7,73.4,1011.4,337.1,1.6,4.4,321.4,0.13,13.9,21.4,"15:55:52",1
"19/10/13","16:10",0.0,18.9,72.5,1011.2,2.2,1.5,3.4,340.3,0.09,13.9,21.5,"16:02:08",1
"19/10/13","16:20",0.0,19.1,71.4,1010.9,352.1,1.2,2.6,31.6,0.09,13.8,21.5,"16:14:40",1
"19/10/13","16:30",0.0,18.8,71.7,1011.6,11.4,1.6,3.4,111.7,0.06,13.6,21.6,"16:27:36",1
"19/10/13","16:40",0.0,18.7,71.5,1011.6,341.9,1.3,3.4,20.6,0.04,13.5,21.4,"16:31:36",1
"19/10/13","16:50",0.0,18.6,72.6,1011.6,336.0,1.0,2.4,342.4,0.04,13.6,21.2,"16:41:20",1
"19/10/13","17:00",0.0,18.5,73.2,1011.9,329.7,1.1,2.1,345.5,0.03,13.7,21.4,"16:52:24",1
"19/10/13","17:10",0.0,18.3,74.1,1012.1,316.3,1.2,4.5,322.5,0.02,13.7,21.2,"17:01:44",1
"19/10/13","17:20",0.0,18.1,75.1,1012.1,319.7,1.1,3.2,334.1,0.01,13.7,21.2,"17:14:16",1
"19/10/13","17:30",0.0,18.0,75.6,1012.3,314.2,0.7,2.2,98.1,0.00,13.7,21.2,"17:20:56",1
"19/10/13","17:40",0.0,17.8,76.2,1012.6,305.7,1.0,2.6,342.8,0.00,13.6,21.1,"17:38:32",1
"19/10/13","17:50",0.0,17.7,76.6,1012.8,306.6,1.0,2.2,335.8,0.00,13.6,21.1,"17:44:00",1
"19/10/13","18:00",0.0,17.4,77.6,1013.3,299.8,1.0,3.4,331.3,0.00,13.5,21.0,"17:59:14",1
"19/10/13","18:10",0.0,17.3,78.2,1013.0,322.5,1.2,1.9,336.0,0.00,13.5,20.9,"18:06:08",1
"19/10/13","18:20",0.0,17.0,79.1,1013.3,317.9,1.0,2.4,328.9,0.00,13.4,20.8,"18:14:24",1
"19/10/13","18:30",0.0,16.8,80.1,1013.0,303.6,0.8,1.3,310.4,0.00,13.4,20.7,"18:21:36",1
"19/10/13","18:40",0.0,16.5,81.4,1013.3,296.6,0.6,1.3,312.1,0.00,13.3,20.7,"18:37:12",1
"19/10/13","18:50",0.0,16.2,82.8,1013.5,311.6,0.7,1.3,334.3,0.00,13.3,20.5,"18:41:20",1
"19/10/13","19:00",0.0,16.3,83.4,1013.8,337.0,1.0,2.0,359.5,0.00,13.5,20.3,"18:58:48",1
"19/10/13","19:10",0.0,16.1,83.9,1013.5,335.5,0.7,1.3,328.5,0.00,13.4,20.3,"19:08:00",1
"19/10/13","19:20",0.0,16.0,84.6,1013.8,322.3,1.0,1.7,321.4,0.00,13.4,20.4,"19:12:40",1
"19/10/13","19:30",0.0,16.0,84.7,1013.8,301.6,0.8,1.4,330.1,0.00,13.5,20.2,"19:22:32",1
"19/10/13","19:40",0.0,15.8,85.1,1014.0,334.7,0.7,1.3,314.5,0.00,13.3,20.1,"19:36:36",1
"19/10/13","19:50",0.0,15.5,86.3,1014.0,318.3,0.8,1.4,329.5,0.00,13.3,20.2,"19:40:16",1
"19/10/13","20:00",0.0,15.2,87.2,1014.0,305.7,0.6,1.0,323.6,0.00,13.1,20.1,"19:50:08",1
"19/10/13","20:10",0.0,14.9,88.3,1014.0,302.9,0.3,1.4,320.2,0.00,13.0,20.0,"20:08:24",1
"19/10/13","20:20",0.0,14.8,89.1,1014.2,329.0,0.8,1.8,356.8,0.00,13.1,19.9,"20:17:28",1
"19/10/13","20:30",0.0,14.7,90.0,1014.5,304.2,1.0,1.2,340.9,0.00,13.1,19.7,"20:25:46",1
"19/10/13","20:40",0.0,14.7,90.1,1014.2,318.5,1.0,1.9,332.9,0.00,13.1,19.9,"20:39:36",1
"19/10/13","20:50",0.0,14.7,90.5,1014.5,319.7,1.0,2.0,343.4,0.00,13.2,19.8,"20:46:40",1
"19/10/13","21:00",0.0,14.8,90.8,1014.5,324.7,0.8,2.0,325.9,0.00,13.4,19.7,"20:59:12",1
"19/10/13","21:10",0.0,15.0,90.8,1014.2,305.0,1.3,2.1,319.1,0.00,13.6,19.5,"21:06:32",1
"19/10/13","21:20",0.0,15.0,90.8,1014.5,309.1,1.2,2.5,333.8,0.00,13.6,19.7,"21:16:24",1
"19/10/13","21:30",0.0,14.9,90.9,1014.7,294.3,0.8,1.7,304.0,0.00,13.5,19.6,"21:23:36",1
"19/10/13","21:40",0.0,14.8,91.1,1014.7,284.1,0.8,1.4,297.8,0.00,13.4,19.5,"21:32:08",1
"19/10/13","21:50",0.0,14.6,91.4,1014.7,279.8,0.5,1.0,311.7,0.00,13.3,19.7,"21:49:20",1
"19/10/13","22:00",0.0,14.5,91.9,1014.5,288.8,0.3,1.2,289.4,0.00,13.2,19.4,"21:50:48",1
"19/10/13","22:10",0.0,14.4,91.9,1014.7,267.0,0.5,1.1,336.0,0.00,13.1,19.4,"22:08:08",1
"19/10/13","22:20",0.0,14.5,91.9,1014.9,297.8,0.6,2.7,311.0,0.00,13.2,19.2,"22:13:20",1
"19/10/13","22:30",0.0,14.6,91.7,1014.7,313.2,0.7,1.2,315.0,0.00,13.3,19.3,"22:29:44",1
"19/10/13","22:40",0.0,14.6,91.7,1014.5,294.7,1.0,2.5,323.7,0.00,13.3,19.3,"22:37:04",1
"19/10/13","22:50",0.0,14.9,91.1,1014.2,301.5,1.1,2.0,306.6,0.00,13.5,19.2,"22:41:20",1
"19/10/13","23:00",0.0,15.0,91.0,1014.7,277.6,0.8,1.7,268.3,0.00,13.6,19.4,"22:54:00",1
"19/10/13","23:10",0.0,15.2,90.5,1014.5,275.7,1.0,1.4,331.8,0.00,13.7,19.2,"23:02:00",1
"19/10/13","23:20",0.0,15.4,90.1,1014.7,297.2,1.0,2.2,321.3,0.00,13.8,19.2,"23:19:44",1
"19/10/13","23:30",0.0,15.6,89.1,1014.5,323.7,1.6,2.9,336.3,0.00,13.9,19.3,"23:22:16",1
"19/10/13","23:40",0.0,15.5,88.4,1014.5,312.4,1.7,2.8,337.5,0.00,13.6,19.1,"23:33:04",1
"19/10/13","23:50",0.0,15.6,87.9,1014.5,290.8,1.2,3.5,332.3,0.00,13.6,19.2,"23:49:04",1
"19/10/13","24:00",0.0,15.8,87.3,1014.5,294.8,1.0,1.9,324.4,0.00,13.7,19.0,"23:55:04",1
